TRA92L EGSS-EHRD

Flight info

Callsign TRA92L
Flight time 0h 38m
Altitude 23000
Route CLN P44 RATLO M197 REDFA
Aircraft B738/M-SDE2E3FGHIRWXY/LB1

Departure

Time 2026-05-06 18:46
Airport London Stansted Airport (EGSS)

Arrival

Time 2026-05-06 19:25
Airport Rotterdam The Hague Airport (EHRD)
Time Latitude Longitude Altitude Speed Heading
2026-05-06 18:29 51.88946 0.25499 336 ft 0 kts 223°
2026-05-06 18:38 51.88961 0.25524 337 ft 4 kts 234°
2026-05-06 18:38 51.88973 0.25561 335 ft 4 kts 262°
2026-05-06 18:38 51.88970 0.25597 337 ft 3 kts 312°
2026-05-06 18:39 51.88965 0.25604 339 ft 1 kts 313°
2026-05-06 18:41 51.88966 0.25603 339 ft 1 kts 313°
2026-05-06 18:41 51.88990 0.25561 335 ft 7 kts 312°
2026-05-06 18:41 51.89026 0.25498 339 ft 8 kts 313°
2026-05-06 18:42 51.89064 0.25431 335 ft 9 kts 313°
2026-05-06 18:42 51.89112 0.25347 338 ft 12 kts 313°
2026-05-06 18:42 51.89187 0.25254 354 ft 16 kts 325°
2026-05-06 18:42 51.89226 0.25091 348 ft 18 kts 243°
2026-05-06 18:43 51.89151 0.24944 342 ft 17 kts 226°
2026-05-06 18:43 51.89057 0.24800 345 ft 21 kts 223°
2026-05-06 18:43 51.88950 0.24641 346 ft 24 kts 222°
2026-05-06 18:43 51.88818 0.24442 343 ft 28 kts 223°
2026-05-06 18:44 51.88670 0.24220 342 ft 31 kts 223°
2026-05-06 18:44 51.88505 0.23972 340 ft 34 kts 223°
2026-05-06 18:44 51.88325 0.23703 336 ft 36 kts 223°
2026-05-06 18:44 51.88148 0.23438 335 ft 36 kts 223°
2026-05-06 18:45 51.87970 0.23170 334 ft 34 kts 223°
2026-05-06 18:45 51.87835 0.22964 336 ft 17 kts 224°
2026-05-06 18:45 51.87864 0.22807 336 ft 16 kts 310°
2026-05-06 18:45 51.87912 0.22724 332 ft 16 kts 319°
2026-05-06 18:46 51.88138 0.22938 332 ft 69 kts 43°
2026-05-06 18:46 51.88659 0.23717 331 ft 136 kts 43°
2026-05-06 18:46 51.89449 0.24951 565 ft 170 kts 42°
2026-05-06 18:46 51.90268 0.26229 1627 ft 154 kts 38°
2026-05-06 18:47 51.91075 0.27455 2341 ft 169 kts 46°
2026-05-06 18:47 51.91697 0.29282 2695 ft 204 kts 72°
2026-05-06 18:47 51.91712 0.31716 2972 ft 231 kts 102°
2026-05-06 18:47 51.91038 0.34142 3551 ft 241 kts 116°
2026-05-06 18:48 51.90264 0.36548 4034 ft 244 kts 115°
2026-05-06 18:48 51.89491 0.39080 4445 ft 262 kts 114°
2026-05-06 18:48 51.88679 0.41768 5251 ft 267 kts 115°
2026-05-06 18:48 51.87874 0.44470 5797 ft 265 kts 115°
2026-05-06 18:49 51.87079 0.47165 6005 ft 266 kts 115°
2026-05-06 18:49 51.86287 0.49860 6004 ft 267 kts 114°
2026-05-06 18:49 51.85468 0.52640 6063 ft 281 kts 114°
2026-05-06 18:49 51.84630 0.55489 7026 ft 278 kts 114°
2026-05-06 18:50 51.83799 0.58318 7964 ft 281 kts 114°
2026-05-06 18:50 51.83158 0.61334 8738 ft 287 kts 101°
2026-05-06 18:50 51.82944 0.64508 9558 ft 291 kts 89°
2026-05-06 18:50 51.83039 0.67814 10309 ft 298 kts 85°
2026-05-06 18:51 51.83196 0.71285 10572 ft 323 kts 84°
2026-05-06 18:51 51.83369 0.75035 10849 ft 344 kts 85°
2026-05-06 18:51 51.83529 0.78939 11477 ft 352 kts 85°
2026-05-06 18:51 51.83681 0.82919 12269 ft 356 kts 85°
2026-05-06 18:52 51.83826 0.86931 13074 ft 359 kts 85°
2026-05-06 18:52 51.83970 0.90974 13846 ft 363 kts 85°
2026-05-06 18:52 51.84114 0.95032 14517 ft 368 kts 85°
2026-05-06 18:52 51.84260 0.99178 15207 ft 371 kts 86°
2026-05-06 18:53 51.84408 1.03373 15871 ft 376 kts 86°
2026-05-06 18:53 51.84555 1.07617 16531 ft 381 kts 86°
2026-05-06 18:53 51.84703 1.11911 17193 ft 385 kts 86°
2026-05-06 18:53 51.85083 1.16213 17797 ft 389 kts 70°
2026-05-06 18:54 51.86133 1.20250 18450 ft 391 kts 64°
2026-05-06 18:54 51.87270 1.24278 19020 ft 395 kts 64°
2026-05-06 18:54 51.88411 1.28346 19577 ft 399 kts 65°
2026-05-06 18:54 51.89165 1.31069 19951 ft 402 kts 65°
2026-05-06 18:55 51.90661 1.36551 20721 ft 405 kts 65°
2026-05-06 18:55 51.91789 1.40735 21449 ft 404 kts 65°
2026-05-06 18:55 51.92902 1.44890 22220 ft 401 kts 66°
2026-05-06 18:55 51.94010 1.49042 22874 ft 403 kts 66°
2026-05-06 18:56 51.95124 1.53221 22976 ft 404 kts 66°
2026-05-06 18:56 51.96063 1.56750 22981 ft 402 kts 66°
2026-05-06 18:56 51.96700 1.59146 22989 ft 401 kts 66°
2026-05-06 18:56 51.97799 1.63284 23002 ft 402 kts 66°
2026-05-06 18:57 51.98902 1.67468 23001 ft 403 kts 67°
2026-05-06 18:57 52.00029 1.73216 23003 ft 404 kts 75°
2026-05-06 18:57 52.00701 1.77586 22979 ft 393 kts 76°
2026-05-06 18:57 52.01246 1.81289 22778 ft 387 kts 76°
2026-05-06 18:58 52.01493 1.82967 22654 ft 385 kts 76°
2026-05-06 18:58 52.02097 1.87032 22365 ft 381 kts 76°
2026-05-06 18:58 52.02720 1.91183 22018 ft 376 kts 76°
2026-05-06 18:58 52.03345 1.95290 21636 ft 373 kts 76°
2026-05-06 18:59 52.03969 1.99360 21252 ft 370 kts 75°
2026-05-06 18:59 52.04591 2.03401 20873 ft 368 kts 75°
2026-05-06 18:59 52.05211 2.07424 20506 ft 365 kts 75°
2026-05-06 18:59 52.05823 2.11409 20146 ft 363 kts 75°
2026-05-06 19:00 52.06359 2.14898 19831 ft 361 kts 75°
2026-05-06 19:00 52.06772 2.17594 19578 ft 359 kts 75°
2026-05-06 19:00 52.07276 2.20889 19275 ft 358 kts 75°
2026-05-06 19:00 52.07786 2.24239 18978 ft 356 kts 75°
2026-05-06 19:01 52.08237 2.27202 18709 ft 355 kts 75°
2026-05-06 19:01 52.08721 2.30392 18410 ft 354 kts 75°
2026-05-06 19:01 52.09166 2.33330 18337 ft 346 kts 75°
2026-05-06 19:01 52.09558 2.35921 18357 ft 338 kts 75°
2026-05-06 19:02 52.09978 2.38696 18413 ft 329 kts 75°
2026-05-06 19:02 52.10368 2.41282 18375 ft 324 kts 75°
2026-05-06 19:02 52.10853 2.44497 18175 ft 339 kts 75°
2026-05-06 19:02 52.11198 2.47312 18082 ft 350 kts 85°
2026-05-06 19:03 52.11039 2.50586 17922 ft 349 kts 108°
2026-05-06 19:03 52.10287 2.53628 17626 ft 347 kts 116°
2026-05-06 19:03 52.09541 2.56245 17338 ft 348 kts 116°
2026-05-06 19:03 52.08560 2.59639 17019 ft 346 kts 116°
2026-05-06 19:04 52.07588 2.63009 16566 ft 344 kts 116°
2026-05-06 19:04 52.06604 2.66438 16060 ft 343 kts 116°
2026-05-06 19:04 52.05653 2.69777 15490 ft 346 kts 115°
2026-05-06 19:04 52.05056 2.71878 15275 ft 343 kts 115°
2026-05-06 19:05 52.04475 2.73921 15071 ft 340 kts 115°
2026-05-06 19:05 52.03919 2.75813 14828 ft 338 kts 120°
2026-05-06 19:05 52.03318 2.77559 14630 ft 335 kts 118°
2026-05-06 19:05 52.02763 2.79440 14433 ft 332 kts 114°
2026-05-06 19:06 52.02281 2.81402 14203 ft 330 kts 111°
2026-05-06 19:06 52.01768 2.83493 13980 ft 329 kts 112°
2026-05-06 19:06 52.01242 2.85503 13636 ft 331 kts 114°
2026-05-06 19:06 52.00705 2.87453 13231 ft 334 kts 115°
2026-05-06 19:07 52.00071 2.89644 12799 ft 337 kts 115°
2026-05-06 19:07 51.99415 2.91861 12539 ft 334 kts 116°
2026-05-06 19:07 51.98706 2.94241 12378 ft 326 kts 115°
2026-05-06 19:07 51.97916 2.96923 11982 ft 324 kts 115°
2026-05-06 19:08 51.96953 3.00253 11464 ft 324 kts 114°
2026-05-06 19:08 51.96019 3.03551 11112 ft 319 kts 114°
2026-05-06 19:08 51.95133 3.06660 10852 ft 312 kts 114°
2026-05-06 19:08 51.94227 3.09790 10467 ft 309 kts 114°
2026-05-06 19:09 51.93416 3.12650 10065 ft 308 kts 113°
2026-05-06 19:09 51.92644 3.15425 9971 ft 296 kts 113°
2026-05-06 19:09 51.91893 3.18145 9761 ft 290 kts 112°
2026-05-06 19:09 51.91124 3.20983 9573 ft 281 kts 112°
2026-05-06 19:10 51.90415 3.23607 9333 ft 276 kts 113°
2026-05-06 19:10 51.89718 3.26118 9054 ft 273 kts 114°
2026-05-06 19:10 51.88978 3.28743 8864 ft 265 kts 114°
2026-05-06 19:10 51.88218 3.31381 8694 ft 257 kts 114°
2026-05-06 19:11 51.87457 3.33976 8401 ft 260 kts 113°
2026-05-06 19:11 51.86711 3.36570 8229 ft 260 kts 114°
2026-05-06 19:11 51.85933 3.39247 7973 ft 267 kts 114°
2026-05-06 19:11 51.85140 3.41964 7692 ft 269 kts 114°
2026-05-06 19:12 51.84310 3.44669 7327 ft 268 kts 115°
2026-05-06 19:12 51.83508 3.47301 7143 ft 260 kts 114°
2026-05-06 19:12 51.82745 3.49909 6900 ft 255 kts 113°
2026-05-06 19:12 51.82002 3.52505 6597 ft 253 kts 112°
2026-05-06 19:13 51.81252 3.55065 6283 ft 251 kts 114°
2026-05-06 19:13 51.80520 3.57596 6217 ft 245 kts 113°
2026-05-06 19:13 51.79952 3.60160 5907 ft 244 kts 94°
2026-05-06 19:13 51.79995 3.62868 6039 ft 244 kts 83°
2026-05-06 19:14 51.80148 3.65611 5921 ft 245 kts 83°
2026-05-06 19:14 51.80315 3.68270 5883 ft 231 kts 82°
2026-05-06 19:14 51.80485 3.70780 5818 ft 219 kts 82°
2026-05-06 19:14 51.80649 3.73146 5811 ft 212 kts 82°
2026-05-06 19:15 51.80812 3.75525 5835 ft 215 kts 82°
2026-05-06 19:15 51.80986 3.77917 5877 ft 211 kts 82°
2026-05-06 19:15 51.81144 3.80223 5955 ft 205 kts 81°
2026-05-06 19:15 51.81299 3.82502 5849 ft 201 kts 81°
2026-05-06 19:16 51.81454 3.84717 5551 ft 199 kts 82°
2026-05-06 19:16 51.81605 3.86933 5231 ft 199 kts 82°
2026-05-06 19:16 51.81768 3.89154 4941 ft 197 kts 81°
2026-05-06 19:16 51.81918 3.91323 4700 ft 192 kts 81°
2026-05-06 19:17 51.82049 3.93457 4391 ft 191 kts 82°
2026-05-06 19:17 51.82178 3.95591 4074 ft 190 kts 82°
2026-05-06 19:17 51.82292 3.97653 3930 ft 180 kts 82°
2026-05-06 19:17 51.82400 3.99649 3673 ft 179 kts 82°
2026-05-06 19:18 51.82512 4.01621 3587 ft 176 kts 82°
2026-05-06 19:18 51.82622 4.03586 3542 ft 176 kts 81°
2026-05-06 19:18 51.82752 4.05572 3494 ft 182 kts 81°
2026-05-06 19:18 51.82861 4.07629 3360 ft 184 kts 82°
2026-05-06 19:19 51.82963 4.09671 3210 ft 182 kts 82°
2026-05-06 19:19 51.83067 4.11688 3028 ft 178 kts 79°
2026-05-06 19:19 51.83476 4.13504 2919 ft 170 kts 53°
2026-05-06 19:19 51.84158 4.15060 2870 ft 171 kts 53°
2026-05-06 19:20 51.84838 4.16680 2769 ft 175 kts 56°
2026-05-06 19:20 51.85494 4.18342 2681 ft 175 kts 57°
2026-05-06 19:20 51.86120 4.19986 2571 ft 175 kts 57°
2026-05-06 19:20 51.86780 4.21663 2438 ft 173 kts 56°
2026-05-06 19:21 51.87430 4.23267 2317 ft 172 kts 55°
2026-05-06 19:21 51.88086 4.24884 2194 ft 172 kts 56°
2026-05-06 19:21 51.88734 4.26512 2024 ft 173 kts 57°
2026-05-06 19:21 51.89377 4.28150 1945 ft 172 kts 57°
2026-05-06 19:22 51.90017 4.29798 1915 ft 173 kts 57°
2026-05-06 19:22 51.90640 4.31422 1695 ft 166 kts 58°
2026-05-06 19:22 51.91247 4.32946 1482 ft 155 kts 56°
2026-05-06 19:22 51.91808 4.34345 1386 ft 142 kts 57°
2026-05-06 19:23 51.92343 4.35667 1144 ft 139 kts 56°
2026-05-06 19:23 51.92879 4.36955 900 ft 137 kts 56°
2026-05-06 19:23 51.93393 4.38252 699 ft 140 kts 58°
2026-05-06 19:23 51.93911 4.39585 514 ft 139 kts 57°
2026-05-06 19:24 51.94421 4.40879 348 ft 135 kts 56°
2026-05-06 19:24 51.94940 4.42147 167 ft 135 kts 57°
2026-05-06 19:24 51.95442 4.43408 5 ft 129 kts 56°
2026-05-06 19:24 51.95853 4.44439 -2 ft 82 kts 58°
2026-05-06 19:25 51.96061 4.44963 0 ft 42 kts 57°
2026-05-06 19:25 51.96151 4.45239 1 ft 21 kts 87°
2026-05-06 19:25 51.96089 4.45395 0 ft 15 kts 156°
2026-05-06 19:25 51.96011 4.45321 0 ft 14 kts 236°
2026-05-06 19:26 51.95959 4.45192 0 ft 13 kts 236°
2026-05-06 19:26 51.95910 4.45069 0 ft 13 kts 238°
2026-05-06 19:26 51.95862 4.44949 0 ft 13 kts 237°
2026-05-06 19:26 51.95815 4.44832 0 ft 12 kts 237°
2026-05-06 19:27 51.95770 4.44716 0 ft 12 kts 237°
2026-05-06 19:27 51.95717 4.44586 0 ft 16 kts 237°
2026-05-06 19:27 51.95652 4.44421 0 ft 18 kts 236°
2026-05-06 19:27 51.95583 4.44251 0 ft 18 kts 237°
2026-05-06 19:28 51.95518 4.44086 0 ft 17 kts 237°
2026-05-06 19:28 51.95460 4.43941 1 ft 16 kts 237°
2026-05-06 19:28 51.95406 4.43806 0 ft 15 kts 237°
2026-05-06 19:28 51.95353 4.43672 0 ft 9 kts 237°
2026-05-06 19:29 51.95323 4.43598 0 ft 6 kts 237°
2026-05-06 19:29 51.95315 4.43579 1 ft 0 kts 237°
2026-05-06 19:29 51.95313 4.43574 0 ft 1 kts 237°
2026-05-06 19:29 51.95303 4.43549 0 ft 4 kts 237°
2026-05-06 19:30 51.95282 4.43511 0 ft 5 kts 212°
2026-05-06 19:30 51.95245 4.43515 0 ft 7 kts 158°
2026-05-06 19:30 51.95196 4.43564 0 ft 9 kts 148°
2026-05-06 19:30 51.95152 4.43608 0 ft 9 kts 149°
2026-05-06 19:31 51.95100 4.43590 0 ft 9 kts 229°
2026-05-06 19:31 51.95065 4.43509 0 ft 9 kts 236°
2026-05-06 19:31 51.95043 4.43402 0 ft 3 kts 314°
2026-05-06 19:32 51.95062 4.43378 0 ft 4 kts 325°
2026-05-06 19:32 51.95067 4.43373 0 ft 0 kts 325°
2026-05-06 19:32 51.95068 4.43372 0 ft 1 kts 323°
2026-05-06 19:32 51.95070 4.43370 0 ft 0 kts 324°